Domov               UVHVVR             MKGP            O straneh              
ZDRAVSTVENO VARSTVO RASTLIN
  MREŽA AGROMET. POSTAJ
 ► PROGNOSTIČNA OBVESTILA
AGROMETEOROLOŠKI PODATKI -
ARSO
OBVLADOVANJE TVEGANJ ZARADI
NEUGODNIH VREMENSKIH RAZMER
  ► NARAVNE NESREČE
  ► SUŠA/MOČA
  ► NAMAKANJE
  ► ŽLED (gozdarstvo)
KARTOGRAFSKI PRIKAZI
SPLETNE POVEZAVE
PROJEKTI IN PUBLIKACIJE

AGROMETEOROLOŠKA MREŽA: VREMENSKE POSTAJE IN FENOLOŠKA OPAZOVANJA

Pregled podatkov za lokacijo Gabernik-Rogaška, meteorološka postaja 37800

Pregled senzorjev na lokaciji

ID Ime Zadnja
vrednost
Datum
zadnje
spremembe
Tip
senzorja
1826 Temperatura 2 m (°C) 2,2 °C 15.12.2017 20:00 50YA
1827 Relativna vlaga 2 m (% RH) 91,87 % RH 15.12.2017 20:00 50YA
1828 Omočenost lista (U) 2 U 15.12.2017 20:00 A730WET
1829 Padavine (mm) 2,2 mm 15.12.2017 20:00 Rain-O-Matic

Pregled podatkov zadnjih 24 ur

Zap.
št.
Datum in čas Gabernik-Rogaška
Omočenost
lista
Padavine Relativna
vlaga
2
m
Temperatura
2
m
0 15.12.2017 20:00 2 2,2 91,87 2,2
1 15.12.2017 19:30 2 2,4 92,04 2,15
2 15.12.2017 19:00 2 2,2 91,87 2,34
3 15.12.2017 18:30 2 2,8 92,94 2,47
4 15.12.2017 18:00 2 3,6 93,04 2,95
5 15.12.2017 17:30 3 1 91,23 3,13
6 15.12.2017 17:00 2 2,4 92,84 2,95
7 15.12.2017 16:30 3 0,8 93,19 3,44
8 15.12.2017 16:00 3 1,8 94,19 3,93
9 15.12.2017 15:30 6 1 93,65 4,49
10 15.12.2017 15:00 9 0,8 90,53 4,88
11 15.12.2017 14:30 9 0 90,72 6,25
12 15.12.2017 14:00 8 0 91,04 7,67
13 15.12.2017 13:30 10 0,6 90,28 8,28
14 15.12.2017 13:00 10 0,2 87,69 9,04
15 15.12.2017 12:30 2 0 70,92 10,92
16 15.12.2017 12:00 9 0 71,58 11,04
17 15.12.2017 11:30 1 0 71,45 11,11
18 15.12.2017 11:00 0 0 70,82 11,21
19 15.12.2017 10:30 0 0 73,77 10,62
20 15.12.2017 10:00 0 0 73,09 10,06
21 15.12.2017 09:30 0 0 73,33 9,65
22 15.12.2017 09:00 0 0 73,85 9,33
23 15.12.2017 08:30 0 0 75,65 8,86
24 15.12.2017 08:00 0 0 78,05 8,55
25 15.12.2017 07:30 0 0 79,41 8,5
26 15.12.2017 07:00 5 0 78,9 8,6
27 15.12.2017 06:30 10 0,2 77,88 8,82
28 15.12.2017 06:00 2 0 73,41 9,3
29 15.12.2017 05:30 0 0 77,78 8,99
30 15.12.2017 05:00 1 0 78,29 8,89
31 15.12.2017 04:30 1 0 79,85 8,55
32 15.12.2017 04:00 10 0 79,27 8,64
33 15.12.2017 03:30 10 0 79,32 8,45
34 15.12.2017 03:00 10 0 83,05 7,86
35 15.12.2017 02:30 10 0 83,96 7,81
36 15.12.2017 02:00 10 0 87,3 7,4
37 15.12.2017 01:30 10 0 88,38 7,23
38 15.12.2017 01:00 10 0 88,3 7,3
39 15.12.2017 00:30 10 0 89,33 7,13
40 15.12.2017 00:00 1 0 88,08 7,23
41 14.12.2017 23:30 0 0 90,84 6,84
42 14.12.2017 23:00 7 0 92,23 6,79
43 14.12.2017 22:30 10 0 93,65 6,47
44 14.12.2017 22:00 10 0 95,68 6,13
45 14.12.2017 21:30 10 0,2 95,63 5,86
46 14.12.2017 21:00 10 0 94,48 6,13
© 2011 Ministrstvo za kmetijstvo, gozdarstvo in prehrano. Vse pravice pridržane.